Date_and_time,latitude,longitude,wind_speed,RelWindDirFrom,WindDirFrom,air_pressure,air_temperature,relative_humidity,Temp,platform_speed_wrt_ground,air_pressure_at_mean_sea_level,platform_orientation
2018-07-31 23:50,50.63046,-96.9807783333333,21.2,25.6,14,990.44,17.7,73,21.25,0.0,1016.66,211.0
2018-08-01 00:00,50.63046,-96.9807783333333,19.6,24.1,9,990.53,17.4,72,21.24,0.0,1016.76,270.0
2018-08-01 00:10,50.63046,-96.9807783333333,18.7,23.2,5,990.64,17.4,71,21.22,0.0,1016.88,270.0
2018-08-01 00:20,50.63046,-96.9807783333333,18.1,22.2,4,990.70,17.4,72,21.20,0.0,1016.93,270.0
2018-08-01 00:30,50.63046,-96.9807783333333,19.5,24.5,10,990.70,17.4,72,21.18,0.0,1016.92,270.0
2018-08-01 00:40,50.6304683333333,-96.9807683333333,19.7,23.7,11,990.75,17.2,72,21.18,0.0,1016.99,270.0
2018-08-01 00:50,50.6304716666667,-96.980775,21.3,24.3,12,990.63,17.2,72,21.17,0.0,1016.87,270.0
2018-08-01 01:00,50.6304633333333,-96.9807866666667,22.1,26.6,14,990.57,17.1,69,21.14,0.0,1016.81,345.5
2018-08-01 01:10,50.6304633333333,-96.98077,19.0,22.8,3,990.74,17.0,68,21.14,0.0,1016.98,345.5
2018-08-01 01:20,50.6304683333333,-96.980775,17.9,22.7,5,990.83,17.0,67,21.13,0.0,1017.08,345.5
2018-08-01 01:30,50.63046,-96.9807716666667,20.0,25.2,17,990.77,17.1,71,21.10,0.0,1017.02,345.5
2018-08-01 01:40,50.6304616666667,-96.9807733333333,20.5,26.6,9,990.85,16.9,70,21.11,0.0,1017.12,345.5
2018-08-01 01:50,50.6304633333333,-96.9807766666667,20.3,26.3,8,990.86,16.7,70,21.09,0.0,1017.15,345.5
2018-08-01 02:00,50.6304583333333,-96.9807816666667,21.1,24.7,6,990.87,16.5,71,21.07,0.0,1017.17,0.0
2018-08-01 02:10,50.63046,-96.9807816666667,20.0,25.1,5,990.97,16.4,70,21.08,0.0,1017.28,0.0
2018-08-01 02:20,50.630465,-96.9807816666667,19.7,25.0,7,991.13,16.3,69,21.07,0.0,1017.44,0.0
2018-08-01 02:30,50.6304533333333,-96.9807766666667,19.4,24.5,16,991.24,16.4,68,21.01,0.0,1017.57,0.0
2018-08-01 02:40,50.6304583333333,-96.98078,19.5,25.2,11,991.40,16.4,70,21.04,0.0,1017.72,0.0
2018-08-01 02:50,50.63046,-96.9807783333333,23.0,28.4,14,991.41,16.2,74,20.99,0.0,1017.75,0.0
2018-08-01 03:00,50.6304583333333,-96.98078,24.6,30.0,16,991.39,15.8,76,20.96,0.0,1017.76,0.0
2018-08-01 03:10,50.6304583333333,-96.9807783333333,23.4,27.6,18,991.54,15.6,77,20.99,0.0,1017.91,0.0
2018-08-01 03:20,50.63046,-96.9807783333333,23.1,27.3,20,991.63,15.5,78,21.01,0.0,1018.01,0.0
2018-08-01 03:30,50.6304616666667,-96.980775,22.7,27.2,21,991.75,15.2,79,21.00,0.0,1018.15,0.0
2018-08-01 03:40,50.6304616666667,-96.980775,23.5,28.6,23,991.80,15.1,82,20.98,0.0,1018.21,0.0
2018-08-01 03:50,50.6304616666667,-96.9807733333333,22.8,28.9,31,991.92,14.9,84,20.96,0.0,1018.36,0.0
2018-08-01 04:00,50.6304616666667,-96.9807733333333,20.2,24.0,31,992.10,14.6,82,20.92,0.0,1018.56,90.0
2018-08-01 04:10,50.6304633333333,-96.980775,21.3,25.6,29,992.02,14.5,81,20.86,0.0,1018.49,90.0
2018-08-01 04:20,50.6304633333333,-96.980775,19.5,23.7,28,992.19,14.5,80,20.85,0.0,1018.66,90.0
2018-08-01 04:30,50.630465,-96.9807733333333,18.5,24.6,30,992.29,14.6,77,20.87,0.0,1018.76,90.0
2018-08-01 04:40,50.630465,-96.9807733333333,17.6,23.0,40,992.36,14.6,74,20.87,0.0,1018.84,90.0
2018-08-01 04:50,50.630465,-96.9807733333333,18.3,24.4,37,992.28,14.5,74,20.89,0.0,1018.78,90.0
2018-08-01 05:00,50.630465,-96.9807733333333,18.9,23.5,39,992.27,14.6,73,20.87,0.0,1018.77,36.6
2018-08-01 05:10,50.630465,-96.9807733333333,17.9,23.9,36,992.35,14.6,72,20.84,0.0,1018.86,36.6
2018-08-01 05:20,50.63047,-96.9807633333333,17.7,22.5,39,992.38,14.5,72,20.84,0.0,1018.91,36.6
2018-08-01 05:30,50.630465,-96.98077,18.0,22.3,31,992.38,14.4,73,20.85,0.0,1018.92,36.6
2018-08-01 05:40,50.6304666666667,-96.980775,15.7,19.8,31,992.47,14.3,73,20.85,0.0,1019.02,36.6
2018-08-01 05:50,50.6304683333333,-96.9807766666667,17.4,24.0,38,992.45,14.3,73,20.84,0.0,1019.03,36.6
2018-08-01 06:00,50.6304516666667,-96.9807633333333,16.8,21.2,37,992.58,14.1,71,20.81,0.0,1019.17,111.5
2018-08-01 06:10,50.6304633333333,-96.9807816666667,17.1,21.5,37,992.65,14.1,70,20.77,0.0,1019.24,111.5
2018-08-01 06:20,50.630465,-96.9807816666667,16.3,20.9,41,992.74,14.1,71,20.76,0.0,1019.32,111.5
2018-08-01 06:30,50.6304633333333,-96.9807833333333,14.0,17.9,42,992.87,14.2,70,20.74,0.0,1019.45,111.5
2018-08-01 06:40,50.6304633333333,-96.9807833333333,16.3,19.3,39,992.90,14.1,70,20.75,0.0,1019.49,111.5
2018-08-01 06:50,50.6304616666667,-96.9807816666667,12.6,18.0,41,993.02,13.9,70,20.74,0.0,1019.62,111.5
2018-08-01 07:00,50.6304616666667,-96.98078,14.2,19.6,49,992.95,14.0,71,20.75,0.0,1019.55,270.0
2018-08-01 07:10,50.6304616666667,-96.9807816666667,16.2,19.9,43,992.94,14.0,74,20.71,0.0,1019.55,270.0
2018-08-01 07:20,50.6304616666667,-96.9807833333333,15.4,20.0,39,992.90,13.8,73,20.70,0.0,1019.52,270.0
2018-08-01 07:30,50.6304616666667,-96.9807833333333,15.0,20.2,48,992.80,13.8,75,20.63,0.0,1019.42,270.0
2018-08-01 07:40,50.6304783333333,-96.980815,16.0,21.1,49,992.73,13.7,76,20.57,0.0,1019.35,270.0
2018-08-01 07:50,50.6304683333333,-96.98079,14.3,17.5,46,992.76,13.6,75,20.59,0.0,1019.39,270.0
2018-08-01 08:00,50.630465,-96.9807833333333,14.9,20.3,48,992.71,13.5,75,20.60,0.0,1019.34,270.0
2018-08-01 08:10,50.6304633333333,-96.9807833333333,15.1,19.3,42,992.65,13.6,77,20.52,0.0,1019.29,270.0
2018-08-01 08:20,50.6304633333333,-96.9807833333333,12.8,18.8,42,992.73,13.4,75,20.49,0.0,1019.37,270.0
2018-08-01 08:30,50.6304633333333,-96.9807833333333,14.9,19.3,60,992.70,13.6,79,20.53,0.0,1019.33,270.0
2018-08-01 08:40,50.6304633333333,-96.980785,14.2,18.2,55,992.65,13.4,76,20.53,0.0,1019.30,270.0
2018-08-01 08:50,50.6304683333333,-96.98079,12.9,17.7,53,992.79,13.3,75,20.52,0.0,1019.44,270.0
2018-08-01 09:00,50.6304633333333,-96.9807883333333,11.7,17.7,49,992.86,13.4,71,20.51,0.0,1019.51,302.3
2018-08-01 09:10,50.6304616666667,-96.9807866666667,11.6,17.5,36,992.81,13.5,72,20.51,0.0,1019.47,302.3
2018-08-01 09:20,50.63046,-96.980785,12.7,16.2,48,992.77,13.5,71,20.49,0.0,1019.42,302.3
2018-08-01 09:30,50.63046,-96.9807833333333,11.2,14.7,27,992.76,13.4,68,20.48,0.0,1019.42,302.3
2018-08-01 09:40,50.630455,-96.9807766666667,12.8,18.8,23,992.71,13.5,68,20.48,0.0,1019.37,302.3
2018-08-01 09:50,50.6304633333333,-96.9807766666667,12.2,16.8,22,992.76,13.4,68,20.45,0.0,1019.43,302.3
2018-08-01 10:00,50.6304666666667,-96.9807983333333,11.7,16.6,19,992.77,13.5,68,20.39,0.0,1019.44,299.2
2018-08-01 10:10,50.6304633333333,-96.98078,12.8,16.9,37,992.74,13.4,67,20.36,0.0,1019.41,299.2
2018-08-01 10:20,50.6304633333333,-96.980785,11.5,16.0,30,992.83,13.3,66,20.34,0.0,1019.51,299.2
2018-08-01 10:30,50.63046,-96.9807716666667,10.4,16.9,41,992.86,13.3,65,20.34,0.0,1019.55,299.2
2018-08-01 10:40,50.6304633333333,-96.980775,10.9,15.3,30,992.75,13.3,66,20.31,0.0,1019.43,299.2
2018-08-01 10:50,50.6304633333333,-96.98078,10.4,14.4,40,992.86,13.3,64,20.35,0.0,1019.55,299.2
2018-08-01 11:00,50.6304583333333,-96.98082,11.5,15.1,45,993.00,13.3,66,20.37,0.0,1019.68,243.3
2018-08-01 11:10,50.630465,-96.9807583333333,11.9,17.2,29,993.00,13.3,66,20.38,0.0,1019.69,243.3
2018-08-01 11:20,50.630465,-96.9807816666667,9.4,12.9,13,993.14,13.2,64,20.37,0.0,1019.84,243.3
2018-08-01 11:30,50.6304583333333,-96.9808066666667,13.3,17.6,32,993.12,13.2,65,20.37,0.0,1019.81,243.3
2018-08-01 11:40,50.63046,-96.9807916666667,12.1,16.0,32,993.24,13.2,64,20.37,0.0,1019.94,243.3
2018-08-01 11:50,50.630465,-96.9807883333333,12.5,17.9,17,993.32,13.1,64,20.36,0.0,1020.02,243.3
2018-08-01 12:00,50.6304633333333,-96.9807866666667,12.5,17.5,21,993.39,13.1,63,20.33,0.0,1020.10,0.0
2018-08-01 12:10,50.6304616666667,-96.9807883333333,12.4,16.9,30,993.48,13.2,64,20.31,0.0,1020.19,0.0
2018-08-01 12:20,50.63046,-96.9807833333333,10.0,17.4,11,993.55,13.0,64,20.30,0.0,1020.28,0.0
2018-08-01 12:30,50.6304583333333,-96.9807816666667,10.8,15.8,34,993.48,12.9,64,20.28,0.0,1020.20,0.0
2018-08-01 12:40,50.6304583333333,-96.9807783333333,13.5,19.2,32,993.39,12.9,67,20.28,0.0,1020.11,0.0
2018-08-01 12:50,50.6304583333333,-96.98078,13.6,18.2,26,993.47,13.0,66,20.27,0.0,1020.19,0.0
2018-08-01 13:00,50.6304583333333,-96.9807783333333,9.7,15.7,29,993.62,12.7,65,20.25,0.0,1020.36,143.4
2018-08-01 13:10,50.6301383333333,-96.9806683333333,11.8,15.3,21,993.51,12.8,67,20.24,0.1,1020.24,143.4
2018-08-01 13:20,50.6273733333333,-96.9677916666667,11.3,18.0,41,993.44,12.7,64,20.09,3.1,1020.18,143.4
2018-08-01 13:30,50.6348116666667,-96.950645,14.1,24.1,25,993.26,12.6,63,20.61,4.7,1020.00,143.4
2018-08-01 13:40,50.6645083333333,-96.9426983333333,19.9,26.0,29,992.74,12.6,63,20.79,10.8,1019.47,143.4
2018-08-01 13:50,50.69432,-96.935035,18.3,23.1,36,992.90,12.5,62,20.90,10.9,1019.63,143.4
2018-08-01 14:00,50.70501,-96.93225,15.0,24.1,53,993.17,12.5,63,20.89,3.9,1019.91,22.4
2018-08-01 14:10,50.71217,-96.930885,13.2,17.9,55,993.30,12.4,64,20.89,2.6,1020.06,22.4
2018-08-01 14:20,50.71963,-96.9316166666667,13.6,17.7,49,993.31,12.5,64,20.90,2.7,1020.06,22.4
2018-08-01 14:30,50.7274083333333,-96.9334533333333,13.3,17.7,52,993.39,12.5,64,20.91,2.8,1020.15,22.4
2018-08-01 14:40,50.7336666666667,-96.928305,10.2,15.9,41,993.50,12.5,64,20.91,2.5,1020.26,22.4
2018-08-01 14:50,50.7335166666667,-96.9286883333333,9.3,13.6,42,993.64,12.4,64,20.92,0.1,1020.42,22.4
2018-08-01 15:00,50.73354,-96.9286616666667,9.8,14.8,48,993.65,12.2,65,20.92,0.0,1020.43,17.7
2018-08-01 15:10,50.7335766666667,-96.9287533333333,9.4,12.2,52,993.61,12.3,64,20.92,0.0,1020.40,17.7
2018-08-01 15:20,50.7339766666667,-96.9297416666667,9.3,12.9,52,993.66,12.3,66,20.92,0.3,1020.45,17.7
2018-08-01 15:30,50.7040116666667,-96.9355033333333,5.6,8.5,155,993.85,12.2,65,20.91,10.9,1020.64,17.7
2018-08-01 15:40,50.6732,-96.94186,5.0,8.5,154,993.93,12.2,65,20.90,11.2,1020.73,17.7
2018-08-01 15:50,50.642275,-96.9478116666667,2.8,7.7,155,993.99,12.2,63,20.93,11.2,1020.80,17.7
2018-08-01 16:00,50.6279233333333,-96.97829,6.5,12.3,328,993.89,12.6,66,20.83,8.7,1020.68,147.9
2018-08-01 16:10,50.6304483333333,-96.9807616666667,8.1,13.3,21,993.84,12.7,66,20.24,1.1,1020.62,147.9
2018-08-01 16:20,50.6304383333333,-96.98076,9.5,12.8,23,993.82,12.9,67,19.95,0.0,1020.59,147.9
2018-08-01 16:30,50.6304366666667,-96.9807616666667,10.1,13.6,22,993.81,12.9,67,19.91,0.0,1020.58,147.9
2018-08-01 16:40,50.6304366666667,-96.9807533333333,9.1,13.3,18,993.85,12.9,67,19.89,0.0,1020.63,147.9
2018-08-01 16:50,50.630435,-96.9807516666667,9.6,14.5,21,993.82,12.8,68,19.88,0.0,1020.61,147.9
2018-08-01 17:00,50.6289783333333,-96.9812583333333,7.4,11.8,22,993.90,12.7,67,19.87,0.5,1020.70,202.2
2018-08-01 17:10,50.6317316666667,-96.9441116666667,14.5,18.8,51,993.52,12.6,65,20.09,8.5,1020.31,202.2
2018-08-01 17:20,50.6086766666667,-96.91401,10.1,16.6,86,993.74,12.4,67,20.63,10.8,1020.55,202.2
2018-08-01 17:30,50.5829333333333,-96.887055,10.9,14.8,110,993.48,12.5,67,20.65,11.1,1020.27,202.2
2018-08-01 17:40,50.55726,-96.8600266666667,13.1,17.3,101,993.30,12.5,67,20.84,11.1,1020.09,202.2
2018-08-01 17:50,50.5442683333333,-96.8480883333333,9.8,15.7,84,993.33,12.4,68,20.88,5.4,1020.11,202.2
2018-08-01 18:00,50.5357766666667,-96.8442483333333,8.5,12.3,83,993.36,12.4,68,20.86,3.2,1020.14,164.8
2018-08-01 18:10,50.5273483333333,-96.8406716666667,7.6,11.1,76,993.22,12.5,67,20.86,3.1,1019.98,164.8
2018-08-01 18:20,50.5188516666667,-96.8361816666667,7.3,9.8,75,993.26,12.6,65,20.88,3.2,1020.02,164.8
2018-08-01 18:30,50.51647,-96.8342283333333,7.7,10.9,73,993.16,12.7,68,20.86,1.0,1019.90,164.8
2018-08-01 18:40,50.5165833333333,-96.8343283333333,9.2,12.1,86,992.97,12.8,68,20.85,0.0,1019.71,164.8
2018-08-01 18:50,50.5164733333333,-96.8342216666667,7.5,10.6,87,992.98,12.7,66,20.85,0.0,1019.73,164.8
2018-08-01 19:00,50.5164833333333,-96.8342166666667,8.2,11.1,78,992.95,12.8,65,20.85,0.0,1019.69,140.6
2018-08-01 19:10,50.5165,-96.8342333333333,6.4,9.1,72,993.03,12.9,64,20.85,0.0,1019.78,140.6
2018-08-01 19:20,50.516495,-96.8342233333333,4.7,8.0,77,992.97,13.0,63,20.85,0.0,1019.71,140.6
2018-08-01 19:30,50.5166183333333,-96.83394,4.0,6.3,85,992.85,13.1,63,20.85,0.1,1019.59,140.6
2018-08-01 19:40,50.4922816666667,-96.8340533333333,8.0,12.3,151,992.65,13.0,63,20.85,8.8,1019.39,140.6
2018-08-01 19:50,50.4677083333333,-96.8345716666667,7.9,13.1,160,992.63,13.1,62,20.86,8.8,1019.36,140.6
2018-08-01 20:00,50.4602933333333,-96.8365333333333,1.2,3.9,159,992.69,13.3,62,20.79,2.7,1019.41,151.3
2018-08-01 20:10,50.4527933333333,-96.8385366666667,1.3,3.4,36,992.75,13.5,62,20.77,2.7,1019.46,151.3
2018-08-01 20:20,50.4452866666667,-96.836375,3.1,5.9,26,992.76,13.4,65,20.81,2.7,1019.47,151.3
2018-08-01 20:30,50.431805,-96.8330066666667,3.0,8.1,129,992.71,13.4,64,20.79,4.9,1019.42,151.3
2018-08-01 20:40,50.4339066666667,-96.8337983333333,3.3,8.1,35,992.68,13.4,63,20.76,0.8,1019.39,151.3
2018-08-01 20:50,50.4338266666667,-96.8336533333333,2.0,3.7,57,992.64,13.7,62,20.73,0.0,1019.33,151.3
2018-08-01 21:00,50.4337916666667,-96.8335783333333,2.0,4.5,3,992.63,13.9,61,20.76,0.0,1019.31,176.2
2018-08-01 21:10,50.4337983333333,-96.8334866666667,3.2,5.0,338,992.50,13.6,62,20.80,0.0,1019.18,176.2
2018-08-01 21:20,50.4338066666667,-96.8334616666667,3.8,5.7,306,992.39,13.7,61,20.78,0.0,1019.06,176.2
2018-08-01 21:30,50.4337983333333,-96.83346,3.4,5.1,310,992.37,13.8,62,20.82,0.0,1019.03,176.2
2018-08-01 21:40,50.4338083333333,-96.8334683333333,3.3,5.0,323,992.31,13.9,61,20.83,0.0,1018.96,176.2
2018-08-01 21:50,50.4337883333333,-96.8334916666667,3.2,6.3,337,992.28,14.0,62,20.83,0.0,1018.92,176.2
2018-08-01 22:00,50.43379,-96.8335083333333,3.2,5.2,335,992.22,13.9,62,20.86,0.0,1018.86,360.0
2018-08-01 22:10,50.43382,-96.8334333333333,3.6,6.5,335,992.11,14.0,62,20.87,0.0,1018.73,360.0
2018-08-01 22:20,50.4337966666667,-96.8335316666667,3.0,4.6,328,992.09,14.1,60,20.89,0.0,1018.72,360.0
2018-08-01 22:30,50.4338366666667,-96.8336433333333,2.2,4.8,24,991.99,14.3,59,20.87,0.0,1018.60,360.0
2018-08-01 22:40,50.433825,-96.8335816666667,2.4,3.9,19,991.94,14.4,60,20.90,0.0,1018.53,360.0
2018-08-01 22:50,50.4337983333333,-96.83346,2.3,5.0,301,991.89,14.3,59,20.95,0.0,1018.48,360.0
2018-08-01 23:00,50.4338916666667,-96.8332366666667,4.4,6.3,278,991.83,14.4,58,20.99,0.1,1018.42,175.4
2018-08-01 23:10,50.4338433333333,-96.8333233333333,3.2,5.0,254,991.78,14.6,57,20.99,0.0,1018.36,175.4
2018-08-01 23:20,50.4338633333333,-96.8332916666667,2.7,5.2,240,991.68,14.9,57,20.96,0.0,1018.24,175.4
2018-08-01 23:30,50.4361383333333,-96.83506,1.9,8.5,240,991.55,15.0,56,21.00,0.9,1018.10,175.4
